Tracking 18843 objects as of 21-November-2017
HD Live streaming from Space Station
objects crossing your sky now

RADUGA 21

Track RADUGA 21 now!
RADUGA 21 is classified as:


NORAD ID: 18631
Int'l Code: 1987-100A
Perigee: 35,775.1 km
Apogee: 35,803.3 km
Inclination: 15.1 °
Period: 1,435.9 minutes
Semi major axis: 42160 km
RCS: 3.9811 m2 (large)
Launch date: December 10, 1987
Source: Commonwealth of Independent States (former USSR) (CIS)
Launch site: TYURATAM MISSILE AND SPACE COMPLEX (TTMTR)
aabbcc
Your satellite tracking list
Your tracking list is empty




NASA's NSSDC Master Catalog

Two Line Element Set (TLE):
1 18631U 87100A   17322.37303878 -.00000306 +00000-0 +00000-0 0  9999
2 18631 015.0722 352.9943 0003338 266.6786 241.0092 01.00287936109678
Source of the keplerian elements: AFSPC